| time (UTC) | temp C | wind direction | speed KPH | gust KPH | rain 1hr cm | rain 24hr cm | rain mn cm | humidity % | barometer mb |
| 20260904211518 | 15 | 220 | 0.0 | 3.2 | 0.00 | 0.61 | 0.61 | 94 | 1016.8 |
| 20260904210505 | 15 | 220 | 0.0 | 1.6 | 0.00 | 0.61 | 0.61 | 94 | 1016.6 |
| 20260904205504 | 15 | 220 | 0.0 | 0.0 | 0.00 | 0.61 | 0.61 | 94 | 1016.8 |
| 20260904204516 | 15 | 220 | 0.0 | 1.6 | 0.00 | 0.61 | 0.61 | 93 | 1016.9 |
| 20260904202515 | 15 | 219 | 1.6 | 8.0 | 0.08 | 0.61 | 0.61 | 93 | 1016.7 |
| 20260904201529 | 15 | 252 | 3.2 | 8.0 | 0.10 | 0.61 | 0.61 | 93 | 1016.1 |
| 20260904200502 | 15 | 271 | 3.2 | 9.7 | 0.15 | 0.61 | 0.61 | 93 | 1015.7 |
| 20260904194500 | 15 | 294 | 1.6 | 4.8 | 0.43 | 0.43 | 0.61 | 93 | 1015.8 |
| 20260904193501 | 15 | 296 | 0.0 | 17.7 | 0.48 | 0.43 | 0.56 | 92 | 1015.5 |
| 20260904192515 | 15 | 271 | 6.4 | 14.5 | 0.48 | 0.43 | 0.53 | 93 | 1015.7 |
| 20260904191518 | 15 | 250 | 3.2 | 14.5 | 0.48 | 0.43 | 0.51 | 93 | 1015.3 |
| 20260904190505 | 15 | 237 | 12.9 | 24.1 | 0.43 | 0.43 | 0.46 | 93 | 1015.4 |
| 20260904184459 | 17 | 292 | 9.7 | 19.3 | 0.18 | 0.03 | 0.18 | 93 | 1015.3 |
| 20260904182502 | 18 | 304 | 9.7 | 19.3 | 0.05 | 0.03 | 0.05 | 91 | 1014.8 |
| 20260904181505 | 19 | 285 | 12.9 | 27.4 | 0.03 | 0.03 | 0.05 | 88 | 1014.6 |
| 20260904180501 | 22 | 327 | 11.3 | 30.6 | 0.00 | 0.03 | 0.03 | 80 | 1013.7 |
| 20260904175500 | 23 | 272 | 12.9 | 24.1 | 0.00 | 0.03 | 0.03 | 69 | 1013.0 |
| 20260904174501 | 23 | 299 | 6.4 | 20.9 | 0.00 | 0.03 | 0.03 | 67 | 1012.4 |
| 20260904173500 | 24 | 202 | 9.7 | 22.5 | 0.00 | 0.03 | 0.03 | 66 | 1012.3 |
| 20260904172523 | 24 | 253 | 9.7 | 25.7 | 0.00 | 0.03 | 0.03 | 66 | 1012.5 |
| 20260904171459 | 24 | 277 | 6.4 | 22.5 | 0.00 | 0.03 | 0.03 | 66 | 1012.5 |
| 20260904170457 | 24 | 232 | 4.8 | 12.9 | 0.00 | 0.03 | 0.03 | 66 | 1012.4 |
| 20260904164456 | 25 | 262 | 6.4 | 12.9 | 0.00 | 0.03 | 0.03 | 64 | 1012.0 |
| 20260904163510 | 25 | 259 | 8.0 | 19.3 | 0.00 | 0.03 | 0.03 | 63 | 1012.2 |
| 20260904162459 | 26 | 252 | 16.1 | 29.0 | 0.00 | 0.03 | 0.03 | 63 | 1012.3 |
| 20260904161456 | 26 | 246 | 9.7 | 22.5 | 0.00 | 0.03 | 0.03 | 63 | 1012.3 |
| 20260904160509 | 26 | 264 | 9.7 | 25.7 | 0.00 | 0.03 | 0.03 | 63 | 1012.2 |
| 20260904155450 | 26 | 175 | 9.7 | 20.9 | 0.00 | 0.03 | 0.03 | 64 | 1012.3 |
| 20260904154448 | 26 | 217 | 12.9 | 22.5 | 0.00 | 0.03 | 0.03 | 64 | 1012.4 |
| 20260904153501 | 26 | 243 | 8.0 | 17.7 | 0.00 | 0.03 | 0.03 | 64 | 1012.4 |
| 20260904152456 | 26 | 221 | 3.2 | 22.5 | 0.00 | 0.03 | 0.03 | 65 | 1012.4 |
| 20260904151455 | 26 | 257 | 11.3 | 24.1 | 0.00 | 0.03 | 0.03 | 65 | 1012.6 |
| 20260904150454 | 25 | 303 | 8.0 | 20.9 | 0.00 | 0.03 | 0.03 | 68 | 1012.5 |
| 20260904145451 | 25 | 250 | 6.4 | 19.3 | 0.00 | 0.03 | 0.03 | 68 | 1012.6 |
| 20260904143458 | 25 | 275 | 8.0 | 17.7 | 0.00 | 0.03 | 0.03 | 67 | 1012.6 |
| 20260904142457 | 26 | 222 | 8.0 | 20.9 | 0.00 | 0.03 | 0.03 | 66 | 1012.5 |
| 20260904135456 | 26 | 271 | 9.7 | 27.4 | 0.00 | 0.03 | 0.03 | 64 | 1012.3 |
| 20260904134528 | 26 | 214 | 14.5 | 29.0 | 0.00 | 0.03 | 0.03 | 64 | 1012.3 |
| 20260904133501 | 26 | 286 | 9.7 | 22.5 | 0.00 | 0.03 | 0.03 | 64 | 1012.2 |
| 20260904132453 | 26 | 243 | 8.0 | 20.9 | 0.00 | 0.03 | 0.03 | 64 | 1012.0 |
| 20260904131454 | 26 | 226 | 6.4 | 22.5 | 0.00 | 0.03 | 0.03 | 65 | 1012.2 |
| 20260904130450 | 26 | 217 | 8.0 | 24.1 | 0.00 | 0.03 | 0.03 | 64 | 1012.4 |
| 20260904125450 | 26 | 235 | 11.3 | 25.7 | 0.00 | 0.03 | 0.03 | 64 | 1012.5 |
| 20260904124449 | 26 | 261 | 14.5 | 30.6 | 0.00 | 0.03 | 0.03 | 64 | 1012.4 |
| 20260904123454 | 26 | 195 | 8.0 | 22.5 | 0.00 | 0.03 | 0.03 | 65 | 1012.8 |
| 20260904122449 | 26 | 246 | 6.4 | 27.4 | 0.00 | 0.03 | 0.03 | 64 | 1012.9 |
| 20260904121450 | 26 | 262 | 9.7 | 30.6 | 0.00 | 0.03 | 0.03 | 65 | 1012.9 |
| 20260904120449 | 26 | 253 | 1.6 | 24.1 | 0.00 | 0.03 | 0.03 | 67 | 1012.9 |
| 20260904115449 | 26 | 237 | 9.7 | 17.7 | 0.00 | 0.03 | 0.03 | 66 | 1013.0 |
| 20260904114449 | 26 | 244 | 8.0 | 24.1 | 0.00 | 0.03 | 0.03 | 61 | 1013.1 |
| 20260904113454 | 26 | 241 | 4.8 | 20.9 | 0.00 | 0.03 | 0.03 | 68 | 1013.1 |
| 20260904112448 | 25 | 265 | 9.7 | 20.9 | 0.00 | 0.03 | 0.03 | 69 | 1013.3 |
| 20260904110448 | 25 | 242 | 8.0 | 25.7 | 0.00 | 0.03 | 0.03 | 70 | 1013.6 |
| 20260904105447 | 25 | 224 | 8.0 | 17.7 | 0.00 | 0.03 | 0.03 | 73 | 1013.6 |
| 20260904103455 | 24 | 224 | 4.8 | 17.7 | 0.00 | 0.05 | 0.03 | 75 | 1013.8 |
| 20260904100449 | 23 | 224 | 6.4 | 20.9 | 0.00 | 0.05 | 0.03 | 77 | 1014.1 |
| 20260904095447 | 23 | 237 | 6.4 | 20.9 | 0.00 | 0.05 | 0.03 | 77 | 1014.3 |
| 20260904094453 | 23 | 228 | 4.8 | 20.9 | 0.00 | 0.05 | 0.03 | 78 | 1014.3 |
| 20260904092447 | 23 | 271 | 9.7 | 24.1 | 0.00 | 0.05 | 0.03 | 77 | 1014.4 |
| 20260904091441 | 23 | 161 | 6.4 | 19.3 | 0.00 | 0.05 | 0.03 | 77 | 1014.3 |
| 20260904090446 | 23 | 253 | 3.2 | 17.7 | 0.00 | 0.05 | 0.03 | 78 | 1014.4 |
| 20260904084448 | 23 | 250 | 11.3 | 19.3 | 0.00 | 0.05 | 0.03 | 80 | 1014.6 |
| 20260904083446 | 22 | 242 | 6.4 | 19.3 | 0.00 | 0.05 | 0.03 | 82 | 1014.7 |
| 20260904082447 | 22 | 227 | 6.4 | 17.7 | 0.00 | 0.05 | 0.03 | 83 | 1014.8 |
| 20260904081448 | 22 | 161 | 0.0 | 12.9 | 0.00 | 0.05 | 0.03 | 85 | 1015.1 |
| 20260904080446 | 21 | 281 | 6.4 | 16.1 | 0.00 | 0.05 | 0.03 | 85 | 1015.1 |
| 20260904075452 | 21 | 135 | 3.2 | 12.9 | 0.00 | 0.05 | 0.03 | 86 | 1015.4 |
| 20260904074444 | 21 | 222 | 0.0 | 11.3 | 0.00 | 0.05 | 0.03 | 86 | 1015.4 |
| 20260904073443 | 21 | 198 | 3.2 | 9.7 | 0.00 | 0.05 | 0.03 | 87 | 1015.4 |
| 20260904072444 | 21 | 191 | 4.8 | 9.7 | 0.00 | 0.05 | 0.03 | 90 | 1015.5 |
| 20260904071444 | 20 | 213 | 1.6 | 11.3 | 0.00 | 0.05 | 0.03 | 91 | 1015.6 |
| 20260904070444 | 20 | 190 | 3.2 | 8.0 | 0.00 | 0.05 | 0.03 | 91 | 1015.7 |
| 20260904063443 | 19 | 193 | 0.0 | 6.4 | 0.00 | 0.05 | 0.03 | 92 | 1015.9 |
| 20260904062442 | 18 | 228 | 3.2 | 8.0 | 0.00 | 0.05 | 0.03 | 92 | 1016.2 |
| 20260904061446 | 18 | 202 | 0.0 | 6.4 | 0.00 | 0.05 | 0.03 | 93 | 1016.2 |
| 20260904060452 | 18 | 198 | 0.0 | 4.8 | 0.00 | 0.05 | 0.03 | 93 | 1016.3 |
| 20260904053445 | 18 | 222 | 1.6 | 6.4 | 0.00 | 0.05 | 0.03 | 93 | 1016.5 |
| 20260904051446 | 18 | 202 | 1.6 | 6.4 | 0.00 | 0.05 | 0.03 | 93 | 1016.5 |
| 20260904050440 | 18 | 175 | 1.6 | 6.4 | 0.00 | 0.05 | 0.03 | 93 | 1016.4 |
| 20260904044442 | 18 | 179 | 0.0 | 3.2 | 0.00 | 0.05 | 0.03 | 93 | 1016.6 |
| 20260904043448 | 18 | 179 | 0.0 | 3.2 | 0.00 | 0.05 | 0.03 | 93 | 1016.6 |
| 20260904041439 | 18 | 203 | 1.6 | 6.4 | 0.00 | 0.05 | 0.03 | 93 | 1016.7 |
| 20260904040440 | 18 | 215 | 0.0 | 4.8 | 0.00 | 0.05 | 0.03 | 93 | 1016.7 |
| 20260904035440 | 18 | 219 | 0.0 | 3.2 | 0.00 | 0.05 | 0.03 | 93 | 1016.8 |
| 20260904034450 | 18 | 219 | 0.0 | 3.2 | 0.00 | 0.05 | 0.03 | 93 | 1016.9 |
| 20260904031436 | 18 | 221 | 0.0 | 3.2 | 0.00 | 0.05 | 0.03 | 93 | 1017.2 |
| 20260904025442 | 18 | 221 | 1.6 | 8.0 | 0.00 | 0.05 | 0.03 | 93 | 1017.3 |
| 20260904024438 | 18 | 165 | 1.6 | 6.4 | 0.00 | 0.05 | 0.03 | 93 | 1017.3 |
| 20260904023434 | 18 | 164 | 3.2 | 9.7 | 0.00 | 0.05 | 0.03 | 92 | 1017.4 |
| 20260904022434 | 18 | 166 | 1.6 | 8.0 | 0.00 | 0.05 | 0.03 | 92 | 1017.7 |
| 20260904021435 | 18 | 163 | 1.6 | 6.4 | 0.00 | 0.05 | 0.03 | 92 | 1017.7 |
| 20260904020436 | 18 | 163 | 1.6 | 8.0 | 0.00 | 0.05 | 0.03 | 91 | 1017.7 |
| 20260904015436 | 18 | 160 | 1.6 | 9.7 | 0.00 | 0.05 | 0.03 | 91 | 1017.8 |
| 20260904014437 | 19 | 201 | 0.0 | 6.4 | 0.00 | 0.05 | 0.03 | 91 | 1017.6 |
| 20260904012438 | 19 | 159 | 1.6 | 8.0 | 0.00 | 0.05 | 0.03 | 90 | 1017.8 |
| 20260904011433 | 19 | 187 | 1.6 | 8.0 | 0.00 | 0.05 | 0.03 | 90 | 1018.0 |
| 20260904010435 | 19 | 227 | 3.2 | 8.0 | 0.00 | 0.05 | 0.03 | 90 | 1018.1 |
| 20260904005435 | 19 | 250 | 0.0 | 8.0 | 0.00 | 0.05 | 0.03 | 90 | 1018.1 |
| 20260904004433 | 19 | 183 | 1.6 | 6.4 | 0.00 | 0.05 | 0.03 | 90 | 1018.1 |
| 20260904003437 | 19 | 165 | 0.0 | 8.0 | 0.00 | 0.05 | 0.03 | 90 | 1018.0 |
| 20260904002434 | 19 | 239 | 3.2 | 6.4 | 0.00 | 0.05 | 0.03 | 90 | 1018.2 |
| 20260904000435 | 19 | 276 | 1.6 | 11.3 | 0.03 | 0.05 | 0.03 | 91 | 1018.4 |
| 20260903235453 | 19 | 225 | 3.2 | 9.7 | 0.03 | 0.03 | 0.03 | 92 | 1018.5 |
| 20260903233432 | 18 | 215 | 1.6 | 8.0 | 0.03 | 0.03 | 0.03 | 92 | 1018.8 |
| 20260903232433 | 18 | 225 | 1.6 | 6.4 | 0.03 | 0.03 | 0.03 | 92 | 1018.9 |
| 20260903231435 | 18 | 228 | 0.0 | 9.7 | 0.00 | 0.03 | 0.00 | 92 | 1018.9 |
| 20260903230437 | 18 | 189 | 1.6 | 4.8 | 0.00 | 0.03 | 0.00 | 91 | 1018.8 |
| 20260903225434 | 18 | 188 | 0.0 | 4.8 | 0.00 | 0.03 | 0.00 | 91 | 1019.0 |
| 20260903224439 | 19 | 188 | 0.0 | 4.8 | 0.00 | 0.03 | 0.00 | 91 | 1019.1 |
| 20260903221437 | 19 | 184 | 0.0 | 4.8 | 0.00 | 0.03 | 0.00 | 90 | 1019.4 |
| 20260903220434 | 19 | 185 | 0.0 | 8.0 | 0.00 | 0.03 | 0.00 | 89 | 1019.4 |
| 20260903215434 | 19 | 167 | 1.6 | 6.4 | 0.00 | 0.03 | 0.03 | 89 | 1019.4 |
| 20260903214431 | 19 | 185 | 0.0 | 4.8 | 0.00 | 0.03 | 0.03 | 89 | 1019.5 |
| 20260903213441 | 18 | 185 | 0.0 | 4.8 | 0.00 | 0.03 | 0.03 | 90 | 1019.5 |
| 20260903212433 | 18 | 185 | 0.0 | 3.2 | 0.00 | 0.03 | 0.03 | 91 | 1019.5 |